Location: Im Fang
(46.6019°N, 7.2397°E)
Time: 13:55:22
(UTC+00:00)

Envisat - Pass Details

Date: 08 December 2019
Orbit: 764 x 766 km, 98.1° (Epoch: 29 January)

Event Time Altitude Azimuth Distance (km) Brightness Sun altitude
Rises 05:52:57 0° 19° (NNE) 3,245 6.2 -11.4°
Reaches altitude 10° 05:55:23 10° 26° (NNE) 2,314 5.5 -11.0°
Maximum altitude 06:00:15 44° 98° (E) 1,058 4.3 -10.2°
Drops below altitude 10° 06:05:04 10° 170° (S) 2,297 5.9 -9.4°
Sets 06:07:28 0° 177° (S) 3,218 6.6 -9.0°
